Probability
0 0 0 0 0 0 0 0 0 0 0 0 0 0 0 0 0 0 0 0 0 0 0 0 0 0 0 0 0 0 0 0 0 0 0 0 0 0 0 0 0 0 0 0
0 0 0 0 0 0 0 0 0 0 0 0 0 0 0 0 0 0 0 0 0 0 0 0 0 0 0 0 0 0 0 0 0 0 0 0 0 0 0 0 0 0 0 0
0 0 0 0 0 0 0 0 0 0 0 0 0 0 0 0 0 0 0 0 0 0 0 0 0 0 0 0 0 0 0 0 0 0 0 0 0 0 0 0 0 0 0 0
0 0 0 0 0 0 0 0 0 0 0 0 0 0 0 0 0 0 0 0 0 0 0 0 0 0 0 0 0 0 0 0 0 0 0 0 0 0 0 0 0 0 0 0
0 0 0 0 0 0 0 0 0 0 0 0 0 0 0 0 0 0 0 0 0 0 0 0 0 0 0 0 0 0 0 0 0 0 0 0 0 0 0 0 0 0 0 0
0 0 0 0 0 0 0 0 0 0 0 0 0 0 0 0 0 0 0 0 0 0 0 0 0 0 0 0 0 0 0 0 0 0 0 0 0 0 0 0 0 0 0 0
0 0 0 0 0 0 0 0 0 0 0 0 0 0 0 0 0 0 0 0 0 0 0 0 0 0 0 0 0 0 0 0 0 0 0 0 0 0 0 0 0 0 0 0
0 0 0 0 0 0 0 0 0 0 0 0 0 0 0 0 0 0 0 0 0 0 0 0 0 0 0 0 0 0 0 0 0 0 0 0 0 0 0 0 0 0 0 0
0 0 0 0 0 0 0 0 0 0 0 0 0 0 0 0 0 0 0 0 0 0 0 0 0 0 0 0 0 0 0 0 0 0 0 0 0 0 0 0 0 0 0 0
0 0 0 0 0 0 0 0 0 0 0 0 0 0 0 0 0 0 0 0 0 0 0 0 0 0 0 0 0 0 0 0 0 0 0 0 0 0 0 0 0 0 0 0
0 0 0 0 0 0 0 0 0 0 0 0 0 0 0 0 0 0 0 0 0 0 0 0 0 0 0 0 0 0 0 0 0 0 0 0 0 0 0 0 0 0 0 0
0 0 0 0 0 0 0 0 0 0 0 0 0 0 0 0 0 0 0 0 0 0 0 0 0 0 0 0 0 0 0 0 0 0 0 0 0 0 0 0 0 0 0 0
0 0 0 0 0 0 0 0 0 0 0 0 0 0 0 0 0 0 0 0 0 0 0 0 0 0 0 0 0 0 0 0 0 0 0 0 0 0 0 0 0 0 0 0
0 0 0 0 0 0 0 0 0 0 0 0 0 0 0 0 0 0 0 0 0 0 0 0 0 0 0 0 0 0 0 0 0 0 0 0 0 0 0 0 0 0 0 0
0 0 0 0 0 0 0 0 0 0 0 0 0 0 0 0 0 0 0 0 0 0 0 0 0 0 0 0 0 0 0 0 0 0 0 0 0 0 0 0 0 0 0 0
0 0 0 0 0 0 0 0 0 0 0 0 0 0 0 0 0 0 0 0 0 0 0 0 0 0 0 0 0 0 0 0 0 0 0 0 0 0 0 0 0 0 0 0
0 0 0 0 0 0 0 0 0 0 0 0 0 0 0 0 0 0 0 0 0 0 0 0 0 0 0 0 0 0 0 0 0 0 0 0 0 0 0 0 0 0 0 0
0 0 0 0 0 0 0 0 0 0 0 0 0 0 0 0 0 0 0 0 0 0 0 0 0 0 0 0 0 0 0 0 0 0 0 0 0 0 0 0 0 0 0 0
0 0 0 0 0 0 0 0 0 0 0 0 0 0 0 0 0 0 0 0 0 0 0 0 0 0 0 0 0 0 0 0 0 0 0 0 0 0 0 0 0 0 0 0
0 0 0 0 0 0 0 0 0 0 0 0 0 0 0 0 0 0 0 0 0 0 0 0 0 0 0 0 0 0 0 0 0 0 0 0 0 0 0 0 0 0 0 0
0 0 0 0 0 0 0 0 0 0 0 0 0 0 0 0 0 0 0 0 0 0 0 0 0 0 0 0 0 0 0 0 0 0 0 0 0 0 0 0 0 0 0 0
0 0 0 0 0 0 0 0 0 0 0 0 0 0 0 0 0 0 0 0 0 0 0 0 0 0 0 0 0 0 0 0 0 0 0 0 0 0 0 0 0 0 0 0
0 0 0 0 0 0 0 0 0 0 0 0 0 0 0 0 0 0 0 0 0 0 0 0 0 0 0 0 0 0 0 0 0 0 0 0 0 0 0 0 0 0 0 0
0 0 0 0 0 0 0 0 0 0 0 0 0 0 0 0 0 0 0 0 0 0 0 0 0 0 0 0 0 0 0 0 0 0 0 0 0 0 0 0 0 0 0 0
0 0 0 0 0 0 0 0 0 0 0 0 0 0 0 0 0 0 0 0 0 0 0 0 0 0 0 0 0 0 0 0 0 0 0 0 0 0 0 0 0 0 0 0
0 0 0 0 0 0 0 0 0 0 0 0 0 0 0 0 0 0 0 0 0 0 0 0 0 0 0 0 0 0 0 0 0 0 0 0 0 0 0 0 0 0 0 0
0 0 0 0 0 0 0 0 0 0 0 0 0 0 0 0 0 0 0 0 0 0 0 0 0 0 0 0 0 0 0 0 0 0 0 0 0 0 0 0 0 0 0 0
Height
5822 5822 5823 5823 5823 5823 5823 5823 5824 5824 5824 5825 5824 5825 5826 5827 5827 5828 5829 5829 5830 5830 5829 5829 5828 5827 5825 5824 5821 5819 5816 5814 5811 5807 5804 5800 5797 5793 5789 5785 5782 5778 5775 5772
5820 5820 5820 5820 5820 5820 5820 5820 5820 5820 5821 5821 5821 5821 5822 5823 5824 5825 5825 5826 5827 5827 5826 5826 5825 5824 5823 5821 5820 5817 5815 5812 5809 5806 5803 5800 5796 5793 5789 5786 5782 5779 5776 5773
5818 5817 5817 5817 5817 5816 5816 5816 5817 5817 5818 5817 5817 5818 5819 5819 5820 5821 5822 5823 5823 5823 5823 5823 5822 5821 5820 5819 5817 5815 5813 5811 5808 5805 5802 5799 5796 5793 5789 5786 5783 5779 5776 5774
5814 5814 5813 5816 5813 5812 5812 5812 5812 5813 5813 5813 5813 5814 5814 5815 5816 5817 5818 5819 5819 5820 5820 5819 5819 5818 5817 5816 5814 5813 5811 5808 5806 5803 5801 5798 5795 5792 5788 5785 5782 5779 5776 5774
5810 5809 5809 5810 5808 5808 5808 5808 5808 5808 5808 5809 5809 5810 5810 5811 5812 5813 5814 5814 5815 5816 5816 5816 5815 5815 5814 5813 5811 5810 5808 5806 5804 5801 5799 5796 5793 5790 5787 5784 5781 5779 5776 5773
5805 5804 5805 5806 5804 5803 5804 5804 5804 5803 5804 5804 5805 5806 5807 5807 5807 5808 5809 5810 5810 5811 5811 5811 5811 5810 5810 5809 5808 5806 5805 5803 5801 5798 5796 5793 5791 5788 5785 5783 5780 5777 5774 5772
5800 5799 5799 5800 5799 5799 5800 5800 5799 5798 5799 5799 5800 5801 5802 5802 5802 5803 5804 5805 5805 5806 5806 5806 5806 5806 5805 5804 5803 5802 5801 5799 5797 5795 5793 5790 5788 5785 5783 5780 5778 5775 5773 5770
5794 5794 5796 5794 5793 5794 5794 5793 5793 5793 5794 5794 5794 5795 5795 5796 5797 5797 5798 5799 5800 5800 5801 5801 5801 5800 5800 5799 5799 5798 5796 5795 5793 5791 5789 5787 5785 5782 5780 5778 5775 5773 5770 5768
5788 5789 5787 5787 5786 5786 5786 5787 5787 5787 5788 5788 5789 5789 5790 5790 5791 5791 5792 5793 5793 5794 5794 5795 5795 5795 5794 5794 5793 5792 5791 5790 5788 5786 5785 5783 5780 5778 5776 5774 5772 5769 5767 5764
5780 5780 5779 5778 5778 5778 5778 5779 5779 5780 5781 5781 5782 5783 5783 5784 5784 5785 5785 5786 5787 5787 5788 5788 5788 5788 5788 5788 5787 5786 5785 5784 5783 5781 5779 5778 5776 5774 5772 5769 5767 5765 5763 5760
5771 5772 5770 5769 5769 5769 5770 5770 5771 5772 5773 5773 5774 5775 5776 5776 5777 5777 5778 5778 5779 5780 5781 5781 5781 5781 5781 5781 5780 5779 5778 5777 5776 5775 5773 5772 5770 5768 5767 5765 5762 5760 5758 5756
5760 5761 5759 5760 5759 5760 5760 5761 5761 5762 5764 5764 5765 5766 5767 5768 5768 5769 5770 5770 5771 5772 5772 5773 5773 5773 5773 5773 5773 5772 5771 5770 5769 5768 5767 5765 5764 5762 5760 5759 5757 5754 5752 5750
5747 5747 5747 5749 5749 5749 5750 5750 5751 5752 5753 5754 5755 5756 5757 5758 5759 5760 5761 5761 5762 5763 5763 5764 5764 5765 5765 5765 5765 5764 5763 5763 5762 5761 5759 5758 5757 5755 5754 5752 5750 5748 5746 5744
5734 5734 5735 5737 5737 5738 5738 5739 5740 5741 5742 5743 5744 5745 5746 5747 5748 5749 5750 5751 5752 5753 5754 5754 5755 5755 5756 5756 5756 5755 5755 5754 5753 5752 5751 5750 5749 5747 5746 5744 5743 5741 5739 5736
5720 5720 5721 5723 5724 5725 5725 5726 5728 5729 5730 5731 5732 5734 5735 5736 5737 5738 5739 5740 5741 5742 5743 5744 5745 5745 5746 5746 5746 5746 5746 5745 5744 5744 5743 5741 5740 5739 5737 5736 5734 5732 5730 5728
5706 5706 5706 5707 5709 5710 5711 5712 5714 5716 5717 5718 5720 5721 5722 5724 5725 5726 5728 5729 5730 5731 5732 5733 5734 5734 5735 5735 5735 5735 5735 5735 5735 5734 5733 5732 5731 5730 5728 5727 5725 5723 5721 5719
5690 5691 5691 5692 5693 5694 5696 5697 5699 5701 5703 5704 5706 5707 5709 5710 5712 5714 5715 5716 5717 5719 5720 5721 5722 5723 5723 5724 5724 5724 5724 5724 5724 5724 5723 5722 5721 5720 5718 5717 5715 5713 5712 5710
5673 5674 5675 5676 5677 5678 5680 5681 5683 5685 5687 5689 5691 5693 5695 5697 5698 5700 5701 5703 5704 5705 5707 5708 5709 5710 5711 5711 5712 5712 5713 5713 5712 5712 5712 5711 5710 5709 5708 5706 5704 5703 5701 5699
5656 5658 5659 5660 5661 5662 5664 5666 5667 5669 5671 5673 5675 5678 5680 5682 5684 5686 5687 5689 5690 5692 5693 5694 5695 5696 5697 5698 5699 5699 5700 5700 5700 5700 5700 5699 5698 5697 5696 5695 5693 5692 5690 5688
5640 5641 5643 5644 5645 5647 5648 5650 5652 5654 5656 5657 5660 5662 5664 5666 5668 5670 5672 5674 5676 5677 5679 5680 5681 5682 5683 5684 5685 5686 5686 5687 5687 5687 5687 5686 5686 5685 5684 5683 5681 5680 5678 5676
5624 5625 5626 5628 5629 5631 5632 5634 5636 5638 5640 5642 5644 5646 5648 5651 5653 5655 5657 5659 5661 5662 5664 5665 5666 5668 5669 5670 5671 5672 5672 5673 5673 5673 5673 5673 5673 5672 5671 5670 5669 5667 5666 5664
5609 5610 5611 5612 5613 5615 5616 5618 5620 5622 5624 5626 5628 5630 5632 5635 5637 5639 5641 5643 5645 5647 5648 5650 5651 5653 5654 5655 5656 5657 5658 5659 5659 5659 5659 5659 5659 5658 5657 5656 5655 5654 5653 5651
5594 5595 5596 5597 5598 5600 5601 5603 5604 5606 5608 5610 5612 5614 5616 5619 5621 5623 5626 5628 5630 5631 5633 5635 5636 5638 5639 5640 5641 5642 5643 5644 5645 5645 5645 5645 5645 5644 5643 5643 5642 5640 5639 5638
5580 5581 5581 5582 5584 5585 5586 5588 5589 5591 5592 5594 5597 5598 5600 5603 5605 5607 5609 5612 5613 5615 5618 5619 5621 5623 5624 5625 5626 5627 5628 5629 5630 5631 5631 5631 5631 5630 5630 5629 5628 5627 5626 5624
5566 5567 5568 5569 5570 5571 5572 5573 5575 5576 5578 5579 5581 5583 5585 5587 5590 5592 5594 5596 5598 5600 5602 5604 5605 5607 5609 5610 5612 5613 5614 5615 5616 5616 5616 5617 5617 5616 5616 5615 5614 5613 5612 5611
5553 5554 5554 5555 5556 5557 5558 5559 5561 5562 5563 5565 5567 5568 5570 5572 5575 5577 5579 5581 5583 5585 5587 5589 5591 5592 5594 5596 5597 5599 5600 5600 5601 5602 5602 5602 5602 5602 5602 5601 5600 5600 5599 5597
5540 5540 5541 5542 5542 5543 5544 5545 5547 5548 5550 5551 5553 5555 5556 5558 5560 5563 5564 5566 5569 5571 5573 5574 5576 5578 5580 5582 5583 5584 5585 5586 5587 5587 5588 5588 5588 5588 5588 5587 5587 5586 5585 5583
Wind_Speed
9 9 10 10 11 11 11 11 11 11 11 12 13 14 14 14 14 13 12 11 10 9 9 9 8 8 8 9 10 11 12 13 14 15 16 17 18 18 17 17 16 15 14 14
10 11 11 11 12 13 13 13 13 13 12 13 14 14 14 15 14 14 13 12 12 11 10 10 9 9 9 9 10 11 12 13 14 15 15 16 17 17 17 16 16 15 14 13
12 13 13 13 14 14 15 15 15 14 13 14 15 15 15 15 15 15 14 13 13 12 11 11 11 10 10 10 10 11 12 12 13 14 15 16 16 16 16 16 16 15 14 13
14 15 16 15 15 16 16 16 16 15 15 15 15 15 15 16 16 15 15 15 14 13 13 12 12 12 11 11 11 12 12 13 13 14 15 15 16 16 16 16 15 14 14 13
16 16 16 16 16 16 17 17 17 17 16 16 16 16 16 16 16 16 16 16 15 15 15 14 13 13 13 13 13 13 13 13 14 14 15 15 15 15 15 15 15 14 14 13
17 18 17 16 16 17 18 18 18 18 17 17 17 17 17 17 17 17 17 17 17 17 16 16 15 15 14 14 14 14 14 14 14 15 15 15 16 15 15 15 15 15 14 14
19 20 19 18 18 18 19 19 19 19 19 18 18 18 18 18 19 19 19 19 18 18 18 17 17 16 16 15 15 15 15 15 16 16 16 16 16 16 15 15 15 15 15 15
22 22 21 21 21 21 21 21 20 20 20 20 20 20 20 20 20 20 20 20 20 20 20 19 18 18 18 17 17 17 17 17 17 17 17 17 17 17 16 16 16 16 16 16
24 24 24 24 24 24 24 23 23 23 22 22 22 22 21 21 22 22 22 22 22 22 22 21 20 20 19 19 19 19 19 18 18 18 18 18 18 17 17 17 17 17 17 17
27 26 27 27 27 27 27 26 26 25 25 25 24 24 24 23 23 23 24 24 24 24 23 23 22 22 22 22 21 21 21 20 20 20 19 19 19 19 19 19 19 18 19 19
31 30 31 31 31 31 30 29 29 28 27 27 27 26 26 26 25 25 25 26 26 26 25 25 25 24 24 24 24 23 23 22 22 21 21 21 20 20 20 20 20 20 20 20
34 33 35 35 35 34 33 32 32 31 30 30 29 29 28 28 28 28 28 28 28 28 28 28 27 27 26 26 25 25 25 24 24 23 23 22 22 22 22 22 22 22 22 22
38 37 38 37 37 37 37 36 35 34 34 33 32 32 31 31 30 30 30 30 30 30 30 30 29 29 28 28 27 27 27 26 26 25 25 25 24 24 24 24 24 24 24 24
41 41 40 40 40 40 40 39 38 37 37 36 35 35 34 33 33 32 32 32 32 32 32 32 31 31 30 30 29 29 29 28 28 27 27 27 27 26 26 26 26 26 26 26
44 44 43 43 42 42 42 42 41 39 39 39 38 37 37 36 35 34 34 34 34 34 33 33 33 33 32 31 31 30 30 30 30 29 29 29 29 29 28 28 29 28 28 28
45 46 46 45 45 45 45 45 44 42 41 41 40 40 39 39 38 38 37 36 36 36 36 36 36 35 35 34 33 33 32 32 32 31 31 31 31 31 31 31 31 31 31 30
46 46 47 47 47 47 47 46 46 45 44 43 42 42 41 41 41 40 39 39 38 38 39 38 38 37 37 36 36 35 34 34 34 33 33 33 33 33 33 33 33 33 33 33
47 47 47 47 47 47 47 47 47 47 46 46 45 44 43 43 42 42 42 42 41 41 40 40 40 40 40 40 39 38 37 36 36 36 35 35 35 35 35 35 35 35 34 35
47 47 46 47 47 47 47 47 47 48 47 47 47 46 45 45 44 44 44 43 43 43 42 42 42 42 42 42 41 41 40 39 38 38 38 37 37 37 37 37 37 37 36 36
45 45 45 45 45 45 45 46 46 46 47 47 47 47 47 46 46 45 45 45 44 44 44 44 44 44 44 43 43 43 42 41 41 40 39 39 39 39 39 39 39 38 38 38
44 44 44 44 44 44 45 45 46 46 46 46 46 46 47 47 46 46 46 45 45 45 45 45 45 45 45 45 44 44 44 43 43 42 42 42 41 41 40 40 40 39 39 39
43 43 43 42 42 42 43 44 45 45 46 46 47 47 46 47 47 46 46 46 46 46 46 46 46 46 45 45 45 45 45 45 44 44 44 44 43 42 42 41 41 41 41 40
41 41 41 41 41 41 41 42 43 44 44 45 46 46 46 46 46 46 45 45 46 46 46 46 45 45 45 45 45 45 45 45 44 44 43 44 44 43 43 42 41 41 41 41
39 39 40 40 40 40 40 40 41 42 43 44 45 45 45 45 45 46 46 45 45 45 45 46 46 46 46 45 45 44 44 44 43 43 43 43 42 42 42 41 41 40 40 41
38 38 39 39 40 40 40 40 41 41 42 42 43 43 43 44 44 44 44 44 44 44 44 44 44 45 46 46 45 44 44 44 43 43 43 43 42 42 41 41 41 41 41 40
38 37 38 39 39 39 39 39 39 40 39 39 40 41 41 41 42 42 43 43 43 43 43 43 43 43 43 44 44 44 44 44 43 43 42 41 41 41 41 41 40 40 40 40
38 37 37 37 38 38 38 38 37 37 38 37 38 39 40 39 40 41 41 41 42 42 42 42 42 42 42 42 42 43 43 43 42 41 41 41 41 40 40 39 39 40 40 40
Wind_Direction
249 254 259 264 262 260 263 263 261 258 257 254 252 248 244 243 243 243 244 246 250 258 266 274 284 295 307 317 325 332 339 344 348 351 355 357 360 2 4 6 7 8 10 11
257 262 266 268 268 264 263 263 263 263 259 254 254 252 248 245 244 244 245 247 250 255 263 271 279 288 298 308 317 325 331 337 341 346 349 352 356 358 1 3 4 5 5 6
264 267 270 271 269 266 264 262 263 264 260 255 255 253 250 246 245 245 246 246 249 255 261 267 275 283 291 300 309 316 323 329 333 338 343 346 349 352 355 357 359 1 2 3
268 268 271 272 266 265 264 262 263 263 260 256 255 253 250 247 247 247 247 247 249 254 259 265 272 279 286 293 301 308 315 321 326 330 334 338 342 345 348 350 352 354 355 356
270 270 271 269 267 264 263 263 262 263 260 257 256 254 250 249 250 249 248 248 250 254 258 264 270 276 282 287 294 301 308 314 318 323 327 331 334 338 340 343 345 346 347 347
271 270 270 268 266 263 263 264 262 262 260 258 256 255 251 250 251 250 250 250 252 254 258 263 268 273 277 282 288 294 300 307 311 315 320 324 326 329 333 335 337 338 339 339
271 271 270 269 267 264 263 264 262 261 260 258 256 254 252 251 251 251 251 252 254 255 258 262 266 270 274 277 283 289 295 300 304 308 313 317 320 322 325 327 329 330 330 330
269 270 271 269 266 264 263 263 263 263 262 260 259 257 255 255 253 252 253 254 255 256 258 261 265 269 272 275 279 285 290 295 299 302 306 310 313 315 317 319 321 322 322 322
267 269 269 268 266 264 263 262 262 262 263 263 261 260 258 257 256 254 254 255 256 257 259 261 264 267 270 273 277 282 286 290 294 297 299 302 305 308 310 312 314 315 316 318
266 267 266 265 264 264 263 261 261 262 263 263 263 261 260 259 258 256 256 256 257 258 260 261 263 265 268 272 276 279 282 286 289 291 294 296 298 301 305 306 308 309 311 313
266 265 264 263 262 262 261 260 260 261 261 262 262 261 260 259 259 258 258 257 258 258 260 262 263 265 268 271 274 277 279 282 285 288 290 291 294 297 300 302 304 304 306 308
265 262 261 261 262 263 262 261 261 261 261 261 261 260 259 259 259 259 259 259 259 259 260 262 264 266 268 270 273 275 277 279 282 284 286 288 290 293 295 298 300 301 302 303
266 263 262 261 260 261 261 260 261 261 261 260 260 260 259 258 258 259 260 260 260 260 260 261 263 265 267 269 271 273 275 277 279 282 283 285 287 289 292 294 297 299 300 300
266 264 263 262 261 260 260 259 259 260 260 260 260 259 259 259 258 258 259 259 259 260 261 261 262 263 265 267 270 272 273 275 277 279 281 282 284 287 289 292 293 295 297 298
266 265 264 262 261 260 260 259 259 258 258 259 259 258 258 258 258 257 257 258 258 259 260 261 261 262 264 265 267 270 272 274 276 277 279 281 283 286 287 289 291 292 293 295
266 265 264 263 261 260 260 259 258 258 257 257 258 258 257 256 256 257 257 257 258 258 259 260 261 262 263 264 266 268 270 273 274 276 277 279 281 284 286 287 289 290 291 293
266 265 264 263 262 261 260 259 258 257 257 256 256 257 257 257 256 256 256 256 257 257 258 259 260 261 262 264 266 266 268 270 272 274 276 278 280 282 284 286 287 289 289 291
266 265 264 263 262 261 260 259 258 257 256 256 255 255 256 256 256 256 256 256 256 256 257 258 259 260 262 263 265 266 267 268 270 272 274 276 278 281 282 284 285 287 288 289
266 264 263 262 261 260 260 259 259 257 256 255 255 254 254 255 256 256 256 256 256 256 257 258 259 260 261 262 263 265 266 267 268 270 272 274 277 279 281 282 284 285 287 288
264 263 262 261 261 260 260 259 259 258 257 255 255 254 254 254 255 256 256 257 257 257 257 257 258 259 260 261 262 264 265 267 268 269 271 273 275 278 280 281 282 284 285 287
264 264 263 262 261 260 260 260 259 258 257 256 255 255 255 255 255 256 256 257 257 257 257 258 258 259 260 260 261 263 264 266 267 269 270 272 274 277 278 280 281 282 284 285
265 265 264 262 261 261 260 260 259 258 257 256 255 255 255 255 255 256 256 256 257 256 257 257 258 259 259 260 261 263 264 266 267 269 271 272 274 275 277 278 280 281 282 283
266 265 264 263 262 261 260 260 260 259 257 256 255 255 255 255 255 255 256 256 257 256 256 256 257 258 259 261 262 263 264 266 268 270 272 273 274 276 277 278 279 280 281 282
267 265 263 263 262 261 260 261 261 260 258 257 256 256 256 255 255 255 255 255 255 256 256 256 256 257 258 260 261 263 264 266 268 270 271 273 275 276 277 278 279 280 280 282
270 267 264 263 263 262 261 261 261 260 259 258 257 257 256 255 255 255 255 254 255 255 255 256 257 258 259 260 261 262 264 265 266 268 270 272 274 275 276 277 278 279 280 281
271 269 266 264 264 263 261 260 260 259 258 258 257 256 256 256 255 254 254 254 254 254 255 256 257 258 259 259 260 261 263 265 266 268 269 270 272 273 275 276 277 278 280 280
271 271 269 267 265 264 262 260 259 257 257 258 259 257 256 255 254 253 253 254 254 255 256 256 257 257 258 258 260 261 263 264 266 267 268 270 271 272 274 275 277 278 279 280